"Period start","avg(HW err(1)/warn(2) (#))","avg(Visibility (m))","avg(Weather code (#))","avg(Precip intensity (mm/h))","min(HW err(1)/warn(2) (#))","max(HW err(1)/warn(2) (#))","std(HW err(1)/warn(2) (#))","med(HW err(1)/warn(2) (#))","min(Visibility (m))","max(Visibility (m))","std(Visibility (m))","med(Visibility (m))","min(Weather code (#))","max(Weather code (#))","std(Weather code (#))","med(Weather code (#))","min(Precip intensity (mm/h))","max(Precip intensity (mm/h))","std(Precip intensity (mm/h))","med(Precip intensity (mm/h))"
2014-11-06 00:00:00,2,14959,0,0.00,2,2,0,2,7966,22832,5262,15002,0,0,0,0,0.00,0.00,0.00,0.00
2014-11-06 00:10:00,2,46501,0,0.00,2,2,0,2,26799,50000,7192,50000,0,0,0,0,0.00,0.00,0.00,0.00
2014-11-06 00:20:00,2,48923,0,0.00,2,2,0,2,41652,50000,2529,50000,0,0,0,0,0.00,0.00,0.00,0.00
2014-11-06 00:30:00,2,50000,0,0.00,2,2,0,2,50000,50000,0,50000,0,0,0,0,0.00,0.00,0.00,0.00
2014-11-06 00:40:00,2,49943,0,0.00,2,2,0,2,49450,50000,164,50000,0,0,0,0,0.00,0.00,0.00,0.00
2014-11-06 00:50:00,2,50000,0,0.00,2,2,0,2,50000,50000,0,50000,0,0,0,0,0.00,0.00,0.00,0.00
2014-11-06 01:00:00,2,49927,0,0.00,2,2,0,2,49274,50000,218,50000,0,0,0,0,0.00,0.00,0.00,0.00
2014-11-06 01:10:00,2,49810,0,0.00,2,2,0,2,48104,50000,569,50000,0,0,0,0,0.00,0.00,0.00,0.00
2014-11-06 01:20:00,2,49592,0,0.00,2,2,0,2,47416,50000,852,50000,0,0,0,0,0.00,0.00,0.00,0.00
2014-11-06 01:30:00,2,49748,0,0.00,2,2,0,2,48634,50000,438,50000,0,0,0,0,0.00,0.00,0.00,0.00
2014-11-06 01:40:00,2,49919,0,0.00,2,2,0,2,49533,50000,164,50000,0,0,0,0,0.00,0.00,0.00,0.00
2014-11-06 01:50:00,2,49062,0,0.00,2,2,0,2,45548,50000,1379,49957,0,0,0,0,0.00,0.00,0.00,0.00
2014-11-06 02:00:00,2,48547,0,0.00,2,2,0,2,45584,50000,1690,49288,0,0,0,0,0.00,0.00,0.00,0.00
2014-11-06 02:10:00,2,42256,0,0.00,2,2,0,2,31713,50000,5820,41985,0,0,0,0,0.00,0.00,0.00,0.00
2014-11-06 02:20:00,2,44494,0,0.00,2,2,0,2,36919,50000,4857,45455,0,0,0,0,0.00,0.00,0.00,0.00
2014-11-06 02:30:00,2,47107,0,0.00,2,2,0,2,37760,50000,4705,49902,0,0,0,0,0.00,0.00,0.00,0.00
2014-11-06 02:40:00,2,37656,0,0.00,2,2,0,2,27511,47796,6027,36023,0,0,0,0,0.00,0.00,0.00,0.00
2014-11-06 02:50:00,2,48147,0,0.00,2,2,0,2,37619,50000,3680,50000,0,0,0,0,0.00,0.00,0.00,0.00
2014-11-06 03:00:00,2,47899,0,0.00,2,2,0,2,43804,50000,2077,48448,0,0,0,0,0.00,0.00,0.00,0.00
2014-11-06 03:10:00,2,49385,0,0.00,2,2,0,2,46624,50000,1190,50000,0,0,0,0,0.00,0.00,0.00,0.00
2014-11-06 03:20:00,2,50000,0,0.00,2,2,0,2,50000,50000,0,50000,0,0,0,0,0.00,0.00,0.00,0.00
2014-11-06 03:30:00,2,49650,0,0.00,2,2,0,2,46866,50000,934,50000,0,0,0,0,0.00,0.00,0.00,0.00
2014-11-06 03:40:00,2,49662,0,0.00,2,2,0,2,47531,50000,760,50000,0,0,0,0,0.00,0.00,0.00,0.00
2014-11-06 03:50:00,2,49932,0,0.00,2,2,0,2,49315,50000,206,50000,0,0,0,0,0.00,0.00,0.00,0.00
2014-11-06 04:00:00,2,49705,0,0.00,2,2,0,2,48161,50000,612,50000,0,0,0,0,0.00,0.00,0.00,0.00
2014-11-06 04:10:00,2,49671,0,0.00,2,2,0,2,46707,50000,988,50000,0,0,0,0,0.00,0.00,0.00,0.00
2014-11-06 04:20:00,2,50000,0,0.00,2,2,0,2,50000,50000,0,50000,0,0,0,0,0.00,0.00,0.00,0.00
2014-11-06 04:30:00,2,50000,0,0.00,2,2,0,2,50000,50000,0,50000,0,0,0,0,0.00,0.00,0.00,0.00
2014-11-06 04:40:00,2,49962,0,0.00,2,2,0,2,49621,50000,114,50000,0,0,0,0,0.00,0.00,0.00,0.00
2014-11-06 04:50:00,2,50000,0,0.00,2,2,0,2,50000,50000,0,50000,0,0,0,0,0.00,0.00,0.00,0.00
2014-11-06 05:00:00,2,50000,0,0.00,2,2,0,2,50000,50000,0,50000,0,0,0,0,0.00,0.00,0.00,0.00
2014-11-06 05:10:00,2,50000,0,0.00,2,2,0,2,50000,50000,0,50000,0,0,0,0,0.00,0.00,0.00,0.00
2014-11-06 05:20:00,2,50000,0,0.00,2,2,0,2,50000,50000,0,50000,0,0,0,0,0.00,0.00,0.00,0.00
2014-11-06 05:30:00,2,49964,0,0.00,2,2,0,2,49674,50000,102,50000,0,0,0,0,0.00,0.00,0.00,0.00
2014-11-06 05:40:00,2,49828,0,0.00,2,2,0,2,49098,50000,293,50000,0,0,0,0,0.00,0.00,0.00,0.00
2014-11-06 05:50:00,2,49886,0,0.00,2,2,0,2,49173,50000,255,50000,0,0,0,0,0.00,0.00,0.00,0.00
2014-11-06 06:00:00,2,45986,0,0.00,2,2,0,2,32347,50000,6339,49562,0,0,0,0,0.00,0.00,0.00,0.00
2014-11-06 06:10:00,2,49958,0,0.00,2,2,0,2,49578,50000,127,50000,0,0,0,0,0.00,0.00,0.00,0.00
2014-11-06 06:20:00,2,50000,0,0.00,2,2,0,2,50000,50000,0,50000,0,0,0,0,0.00,0.00,0.00,0.00
2014-11-06 06:30:00,2,50000,0,0.00,2,2,0,2,50000,50000,0,50000,0,0,0,0,0.00,0.00,0.00,0.00
2014-11-06 06:40:00,2,49803,0,0.00,2,2,0,2,48317,50000,503,50000,0,0,0,0,0.00,0.00,0.00,0.00
2014-11-06 06:50:00,2,50000,0,0.00,2,2,0,2,50000,50000,0,50000,0,0,0,0,0.00,0.00,0.00,0.00
2014-11-06 07:00:00,2,50000,0,0.00,2,2,0,2,50000,50000,0,50000,0,0,0,0,0.00,0.00,0.00,0.00
2014-11-06 07:10:00,2,50000,0,0.00,2,2,0,2,50000,50000,0,50000,0,0,0,0,0.00,0.00,0.00,0.00
2014-11-06 07:20:00,2,49255,0,0.00,2,2,0,2,44894,50000,1526,50000,0,0,0,0,0.00,0.00,0.00,0.00
2014-11-06 07:30:00,2,50000,0,0.00,2,2,0,2,50000,50000,0,50000,0,0,0,0,0.00,0.00,0.00,0.00
2014-11-06 07:40:00,2,40630,0,0.00,2,2,0,2,22162,50000,11199,48688,0,0,0,0,0.00,0.00,0.00,0.00
2014-11-06 07:50:00,2,29625,0,0.00,2,2,0,2,19641,39893,6156,30325,0,0,0,0,0.00,0.00,0.00,0.00
2014-11-06 08:00:00,2,20499,0,0.00,2,2,0,2,10200,33682,6529,20712,0,0,0,0,0.00,0.00,0.00,0.00
2014-11-06 08:10:00,2,7112,3,0.00,2,2,0,2,3521,13295,2458,6776,0,10,5,0,0.00,0.00,0.00,0.00
2014-11-06 08:20:00,2,6250,10,0.00,2,2,0,2,2267,10111,2294,6199,10,10,0,10,0.00,0.00,0.00,0.00
2014-11-06 08:30:00,2,6708,10,0.00,2,2,0,2,3750,9381,1756,7164,10,10,0,10,0.00,0.00,0.00,0.00
2014-11-06 08:40:00,2,17167,10,0.00,2,2,0,2,7741,28584,6403,17578,10,10,0,10,0.00,0.00,0.00,0.00
2014-11-06 08:50:00,2,27072,0,0.00,2,2,0,2,12848,36347,8062,30791,0,0,0,0,0.00,0.00,0.00,0.00
2014-11-06 09:00:00,2,30149,0,0.00,2,2,0,2,9816,47333,13368,35085,0,0,0,0,0.00,0.00,0.00,0.00
2014-11-06 09:10:00,2,49629,0,0.00,2,2,0,2,46291,50000,1113,50000,0,0,0,0,0.00,0.00,0.00,0.00
2014-11-06 09:20:00,2,25845,0,0.00,2,2,0,2,12240,50000,11103,23823,0,0,0,0,0.00,0.00,0.00,0.00
2014-11-06 09:30:00,2,13128,0,0.00,2,2,0,2,6961,30184,7829,9838,0,0,0,0,0.00,0.00,0.00,0.00
2014-11-06 09:40:00,2,16813,9,0.00,2,2,0,2,6199,37719,9977,11522,0,10,3,10,0.00,0.00,0.00,0.00
2014-11-06 09:50:00,2,12260,23,0.00,2,2,0,2,6299,29696,7158,10015,0,78,33,0,0.00,0.00,0.00,0.00
2014-11-06 10:00:00,2,10023,77,0.06,2,2,0,2,6586,16118,3213,9344,71,78,2,78,0.00,0.20,0.08,0.03
2014-11-06 10:10:00,2,7159,75,0.14,2,2,0,2,5394,8485,1144,7090,71,77,3,77,0.05,0.35,0.08,0.12
2014-11-06 10:20:00,2,10292,75,0.04,2,2,0,2,6103,13775,2181,10742,71,78,3,77,0.00,0.10,0.03,0.05
2014-11-06 10:30:00,2,23243,78,0.00,2,2,0,2,13544,35065,7122,24002,78,78,0,78,0.00,0.00,0.00,0.00
2014-11-06 10:40:00,2,15329,78,0.02,2,2,0,2,5328,35859,9398,13173,77,78,0,78,0.00,0.05,0.02,0.00
2014-11-06 10:50:00,2,12832,78,0.02,2,2,0,2,4230,24436,6775,10540,78,78,0,78,0.00,0.05,0.02,0.00
2014-11-06 11:00:00,2,20288,78,0.00,2,2,0,2,11761,27197,3912,20096,78,78,0,78,0.00,0.00,0.00,0.00
2014-11-06 11:10:00,2,10780,78,0.01,2,2,0,2,6291,14197,2416,10358,78,78,0,78,0.00,0.05,0.02,0.00
2014-11-06 11:20:00,2,4543,76,0.19,2,2,0,2,2949,5909,1092,4642,71,78,3,77,0.05,0.35,0.09,0.17
2014-11-06 11:30:00,2,4087,77,0.18,2,2,0,2,3591,4856,374,4059,71,78,2,77,0.15,0.25,0.03,0.20
2014-11-06 11:40:00,2,5023,77,0.07,2,2,0,2,4079,5909,583,5001,77,77,0,77,0.05,0.10,0.02,0.05
2014-11-06 11:50:00,2,5932,77,0.05,2,2,0,2,5220,7098,546,5686,77,77,0,77,0.00,0.10,0.03,0.05
2014-11-06 12:00:00,2,4840,77,0.01,2,2,0,2,2638,6054,975,4837,77,77,0,77,0.00,0.05,0.02,0.00
2014-11-06 12:10:00,2,6493,77,0.00,2,2,0,2,5232,8116,951,6412,77,77,0,77,0.00,0.00,0.00,0.00
2014-11-06 12:20:00,2,5863,77,0.00,2,2,0,2,4316,7084,909,5926,77,77,0,77,0.00,0.00,0.00,0.00
2014-11-06 12:30:00,2,8870,77,0.00,2,2,0,2,7331,10145,929,9141,77,77,0,77,0.00,0.00,0.00,0.00
2014-11-06 12:40:00,2,7932,77,0.00,2,2,0,2,4929,10285,1648,7820,77,77,0,77,0.00,0.00,0.00,0.00
2014-11-06 12:50:00,2,7548,77,0.00,2,2,0,2,5629,9477,1170,7656,77,77,0,77,0.00,0.00,0.00,0.00
2014-11-06 13:00:00,2,6799,77,0.04,2,2,0,2,5674,8719,813,6538,77,78,0,77,0.00,0.05,0.02,0.05
2014-11-06 13:10:00,2,3898,77,0.01,2,2,0,2,1752,5341,1005,4029,77,78,0,77,0.00,0.05,0.02,0.00
2014-11-06 13:20:00,2,3145,77,0.00,2,2,0,2,2457,3822,410,3207,77,77,0,77,0.00,0.00,0.00,0.00
2014-11-06 13:30:00,2,2565,77,0.01,2,2,0,2,2051,3066,350,2651,77,77,0,77,0.00,0.05,0.02,0.00
2014-11-06 13:40:00,2,2919,77,0.02,2,2,0,2,2192,3732,515,2938,77,77,0,77,0.00,0.05,0.02,0.00
2014-11-06 13:50:00,2,2298,77,0.04,2,2,0,2,873,3938,818,2400,77,77,0,77,0.00,0.30,0.09,0.00
2014-11-06 14:00:00,2,2796,77,0.01,2,2,0,2,1685,4692,858,2680,77,77,0,77,0.00,0.05,0.02,0.00
2014-11-06 14:10:00,2,3990,77,0.00,2,2,0,2,2678,5370,713,4116,77,77,0,77,0.00,0.00,0.00,0.00
2014-11-06 14:20:00,2,6669,77,0.00,2,2,0,2,1924,11522,3108,6080,77,77,0,77,0.00,0.00,0.00,0.00
2014-11-06 14:30:00,2,3016,50,0.01,2,2,0,2,960,6667,2053,2278,10,77,32,74,0.00,0.15,0.05,0.00
2014-11-06 14:40:00,2,5148,30,0.01,2,2,0,2,1851,16200,3976,4362,10,77,30,10,0.00,0.05,0.02,0.00
2014-11-06 14:50:00,2,3996,10,0.00,2,2,0,2,2723,5721,1095,3766,10,10,0,10,0.00,0.00,0.00,0.00
2014-11-06 15:00:00,2,4649,10,0.00,2,2,0,2,2817,6881,1161,4831,10,10,0,10,0.00,0.00,0.00,0.00
2014-11-06 15:10:00,2,7161,10,0.00,2,2,0,2,5461,11345,1649,6916,10,10,0,10,0.00,0.00,0.00,0.00
2014-11-06 15:20:00,2,5996,10,0.00,2,2,0,2,2852,10241,2394,5854,10,10,0,10,0.00,0.00,0.00,0.00
2014-11-06 15:30:00,2,5782,10,0.00,2,2,0,2,3134,9268,1901,5322,10,10,0,10,0.00,0.00,0.00,0.00
2014-11-06 15:40:00,2,7615,10,0.00,2,2,0,2,4621,12033,2231,7628,10,10,0,10,0.00,0.00,0.00,0.00
2014-11-06 15:50:00,2,3911,10,0.00,2,2,0,2,2846,5222,755,4055,10,10,0,10,0.00,0.00,0.00,0.00
2014-11-06 16:00:00,2,5595,10,0.00,2,2,0,2,2127,10887,3020,4973,10,10,0,10,0.00,0.00,0.00,0.00
2014-11-06 16:10:00,2,9772,10,0.00,2,2,0,2,7113,15040,2120,8912,10,10,0,10,0.00,0.00,0.00,0.00
2014-11-06 16:20:00,2,8518,10,0.00,2,2,0,2,4457,14171,2824,8166,10,10,0,10,0.00,0.00,0.00,0.00
2014-11-06 16:30:00,2,7138,10,0.00,2,2,0,2,2547,10675,2355,7118,10,10,0,10,0.00,0.00,0.00,0.00
2014-11-06 16:40:00,2,6164,10,0.00,2,2,0,2,5094,8771,1032,5884,10,10,0,10,0.00,0.00,0.00,0.00
2014-11-06 16:50:00,2,4957,10,0.00,2,2,0,2,2850,8751,1684,4843,10,10,0,10,0.00,0.00,0.00,0.00
2014-11-06 17:00:00,2,8338,10,0.00,2,2,0,2,5148,12710,2607,8208,10,10,0,10,0.00,0.00,0.00,0.00
2014-11-06 17:10:00,2,11246,7,0.00,2,2,0,2,4209,16369,3253,11015,0,10,5,10,0.00,0.00,0.00,0.00
2014-11-06 17:20:00,2,9196,9,0.00,2,2,0,2,5314,13853,3139,8541,0,10,3,10,0.00,0.00,0.00,0.00
2014-11-06 17:30:00,2,4338,10,0.00,2,2,0,2,2985,5930,1033,4092,10,10,0,10,0.00,0.00,0.00,0.00
2014-11-06 17:40:00,2,6347,10,0.00,2,2,0,2,3940,10271,1942,5924,10,10,0,10,0.00,0.00,0.00,0.00
2014-11-06 17:50:00,2,9044,10,0.00,2,2,0,2,6497,10936,1660,9515,10,10,0,10,0.00,0.00,0.00,0.00
2014-11-06 18:00:00,2,15287,10,0.00,2,2,0,2,6296,31842,6920,13843,10,10,0,10,0.00,0.00,0.00,0.00
2014-11-06 18:10:00,2,40385,0,0.00,2,2,0,2,26673,50000,9470,41578,0,0,0,0,0.00,0.00,0.00,0.00
2014-11-06 18:20:00,2,20717,0,0.00,2,2,0,2,10918,29848,6042,21950,0,0,0,0,0.00,0.00,0.00,0.00
2014-11-06 18:30:00,2,22150,0,0.00,2,2,0,2,11040,33470,8236,24794,0,0,0,0,0.00,0.00,0.00,0.00
2014-11-06 18:40:00,2,17311,0,0.00,2,2,0,2,13573,22700,2826,16350,0,0,0,0,0.00,0.00,0.00,0.00
2014-11-06 18:50:00,2,24809,0,0.00,2,2,0,2,15930,41319,7896,22418,0,0,0,0,0.00,0.00,0.00,0.00
2014-11-06 19:00:00,2,45005,0,0.00,2,2,0,2,29846,50000,6463,48684,0,0,0,0,0.00,0.00,0.00,0.00
2014-11-06 19:10:00,2,18687,0,0.00,2,2,0,2,12749,22296,3090,18651,0,0,0,0,0.00,0.00,0.00,0.00
2014-11-06 19:20:00,2,15097,0,0.00,2,2,0,2,7311,23590,4423,15250,0,0,0,0,0.00,0.00,0.00,0.00
2014-11-06 19:30:00,2,34670,0,0.00,2,2,0,2,25096,44910,6581,35588,0,0,0,0,0.00,0.00,0.00,0.00
2014-11-06 19:40:00,2,49937,0,0.00,2,2,0,2,49370,50000,189,50000,0,0,0,0,0.00,0.00,0.00,0.00
2014-11-06 19:50:00,2,50000,0,0.00,2,2,0,2,50000,50000,0,50000,0,0,0,0,0.00,0.00,0.00,0.00
2014-11-06 20:00:00,2,50000,0,0.00,2,2,0,2,50000,50000,0,50000,0,0,0,0,0.00,0.00,0.00,0.00
2014-11-06 20:10:00,2,50000,0,0.00,2,2,0,2,50000,50000,0,50000,0,0,0,0,0.00,0.00,0.00,0.00
2014-11-06 20:20:00,2,50000,0,0.00,2,2,0,2,50000,50000,0,50000,0,0,0,0,0.00,0.00,0.00,0.00
2014-11-06 20:30:00,2,50000,0,0.00,2,2,0,2,50000,50000,0,50000,0,0,0,0,0.00,0.00,0.00,0.00
2014-11-06 20:40:00,2,50000,0,0.00,2,2,0,2,50000,50000,0,50000,0,0,0,0,0.00,0.00,0.00,0.00
2014-11-06 20:50:00,2,50000,0,0.00,2,2,0,2,50000,50000,0,50000,0,0,0,0,0.00,0.00,0.00,0.00
2014-11-06 21:00:00,2,50000,0,0.00,2,2,0,2,50000,50000,0,50000,0,0,0,0,0.00,0.00,0.00,0.00
2014-11-06 21:10:00,2,50000,0,0.00,2,2,0,2,50000,50000,0,50000,0,0,0,0,0.00,0.00,0.00,0.00
2014-11-06 21:20:00,2,50000,0,0.00,2,2,0,2,50000,50000,0,50000,0,0,0,0,0.00,0.00,0.00,0.00
2014-11-06 21:30:00,2,50000,0,0.00,2,2,0,2,50000,50000,0,50000,0,0,0,0,0.00,0.00,0.00,0.00
2014-11-06 21:40:00,2,50000,0,0.00,2,2,0,2,50000,50000,0,50000,0,0,0,0,0.00,0.00,0.00,0.00
2014-11-06 21:50:00,2,50000,0,0.00,2,2,0,2,50000,50000,0,50000,0,0,0,0,0.00,0.00,0.00,0.00
2014-11-06 22:00:00,2,50000,0,0.00,2,2,0,2,50000,50000,0,50000,0,0,0,0,0.00,0.00,0.00,0.00
2014-11-06 22:10:00,2,50000,0,0.00,2,2,0,2,50000,50000,0,50000,0,0,0,0,0.00,0.00,0.00,0.00
2014-11-06 22:20:00,2,50000,0,0.00,2,2,0,2,50000,50000,0,50000,0,0,0,0,0.00,0.00,0.00,0.00
2014-11-06 22:30:00,2,50000,0,0.00,2,2,0,2,50000,50000,0,50000,0,0,0,0,0.00,0.00,0.00,0.00
2014-11-06 22:40:00,2,49989,0,0.00,2,2,0,2,49890,50000,33,50000,0,0,0,0,0.00,0.00,0.00,0.00
2014-11-06 22:50:00,2,50000,0,0.00,2,2,0,2,50000,50000,0,50000,0,0,0,0,0.00,0.00,0.00,0.00
2014-11-06 23:00:00,2,49731,0,0.00,2,2,0,2,48084,50000,596,50000,0,0,0,0,0.00,0.00,0.00,0.00
2014-11-06 23:10:00,2,30038,0,0.00,2,2,0,2,12210,49796,15344,26096,0,0,0,0,0.00,0.00,0.00,0.00
2014-11-06 23:20:00,2,9364,69,0.01,2,2,0,2,6210,12967,2265,9350,0,78,23,78,0.00,0.05,0.02,0.00
2014-11-06 23:30:00,2,4942,78,0.04,2,2,0,2,3817,5823,601,5147,78,78,0,78,0.00,0.05,0.02,0.05
2014-11-06 23:40:00,2,3365,78,0.05,2,2,0,2,3077,3632,201,3319,77,78,0,78,0.05,0.05,0.00,0.05
2014-11-06 23:50:00,2,4070,78,0.04,2,2,0,2,3776,4767,325,3886,77,78,0,78,0.00,0.05,0.02,0.05
